[[{"header":{"parameterUnit":"m.s-1","parameterCategory":1,"la1":30.2991,"la2":30.254,"lo1":-89.0895,"lo2":-89.0444,"dy":0.0017,"dx":0.0017,"nx":28,"ny":28,"refTime":"2025-09-06T03:00:00:Z","depth":0,"parameterNumber":2,"parameterNumberName":"U-component_of_WINDS"},"data":[0,0,0,0,0,0,0,0,0,0,0,0,0,0,0,0,0,0,0,0,0,0,0,0,0,0,0,0,0,0,0,0,0,0,0,0,0,0,0,0,0,0,0,0,0,0,0,0,0,0,0,0,0,0,0,0,0,0,-0.2766,-0.2766,0,-0.2746,-0.2746,-0.2745,-0.2709,-0.2709,-0.2708,-0.2707,-0.2688,-0.2688,-0.2689,0,0,0,0,0,0,0,0,0,0,0,0,0,-0.2776,-0.2776,-0.2766,-0.2766,-0.2766,-0.2746,-0.2746,-0.2745,-0.2709,-0.2709,-0.2708,-0.2707,-0.2688,-0.2688,-0.2689,0,0,0,0,0,0,0,0,0,0,0,0,0,-0.2765,-0.2776,-0.2766,-0.2745,-0.2743,-0.2746,-0.2746,-0.2745,-0.271,-0.2709,-0.2708,-0.2707,-0.2688,-0.2688,-0.2689,-0.271,0,0,-0.2689,-0.2689,0,0,0,0,0,0,0,0,-0.2766,-0.2765,-0.2749,-0.2747,-0.2744,-0.2729,-0.2742,-0.2734,-0.271,-0.2722,-0.2707,-0.2706,-0.2703,-0.2702,-0.27,-0.271,-0.2709,-0.2689,-0.2689,-0.2689,-0.269,0,0,0,0,0,0,0,-0.2767,-0.2766,-0.2758,-0.2748,-0.2746,-0.2738,-0.2735,-0.274,-0.2719,-0.2721,-0.2719,-0.2717,-0.2701,-0.27,-0.27,-0.2708,-0.2689,-0.2689,-0.269,-0.269,-0.2736,-0.2737,0,0,0,0,0,0,-0.277,-0.2766,-0.2759,-0.2757,-0.2753,-0.2738,-0.2735,-0.2735,-0.2719,-0.2715,-0.2718,-0.2715,-0.27,-0.2699,-0.2699,-0.2724,-0.2689,-0.269,-0.269,-0.2734,-0.2736,-0.2737,0,0,0,0,0,0,-0.2771,-0.277,-0.276,-0.2761,-0.2759,-0.2739,-0.2739,-0.2735,-0.2734,-0.2716,-0.2712,-0.272,-0.2699,-0.2698,-0.2708,-0.2723,-0.269,-0.269,-0.2733,-0.2735,-0.2736,-0.2774,0,0,0,0,0,0,-0.2771,-0.277,-0.2778,-0.2762,-0.2759,-0.2769,-0.274,-0.2736,-0.2734,-0.2731,-0.2717,-0.2714,-0.2699,-0.2708,-0.2708,-0.2722,-0.269,-0.2732,-0.2734,-0.2736,-0.2772,-0.2777,-0.2782,0,0,0,0,0,-0.2771,-0.2789,-0.2778,-0.2778,-0.2768,-0.277,-0.2768,-0.275,-0.2735,-0.2743,-0.2732,-0.2714,-0.2721,-0.2709,-0.2709,-0.2724,-0.2731,-0.2733,-0.2736,-0.2769,-0.2776,-0.2781,0,0,0,0,0,0,-0.2809,-0.2787,-0.2774,-0.2788,-0.2781,-0.2763,-0.2773,-0.2757,-0.2755,-0.2752,-0.2729,-0.2727,-0.2739,-0.2732,-0.2719,-0.2744,-0.2723,-0.2726,-0.2749,-0.2755,-0.276,-0.2762,-0.269,0,0,0,0,0,-0.2818,-0.282,-0.2801,-0.2815,-0.2812,-0.2793,-0.2793,-0.2779,-0.2771,-0.2769,-0.2758,-0.2751,-0.2752,-0.2753,-0.2752,-0.277,-0.2767,-0.278,-0.2785,-0.2789,-0.2792,-0.2802,-0.2808,-0.2745,-0.2745,-0.2745,0,0,-0.2838,-0.2827,-0.283,-0.2822,-0.2815,-0.2819,-0.2791,-0.2796,-0.2798,-0.2769,-0.2778,-0.277,-0.2761,-0.2775,-0.278,-0.2769,-0.2809,-0.2793,-0.2796,-0.2797,-0.2805,-0.2811,-0.2817,-0.2747,-0.2746,-0.2746,0,0,-0.2877,-0.2868,-0.2879,-0.2872,-0.2862,-0.2849,-0.2852,-0.2837,-0.283,-0.2838,-0.2816,-0.2819,-0.2821,-0.2816,-0.2813,-0.285,-0.2834,-0.2851,-0.2877,-0.2887,-0.2892,-0.2896,-0.2911,-0.2916,-0.2853,-0.2853,-0.2853,0,-0.2904,-0.2907,-0.2886,-0.2893,-0.289,-0.2864,-0.2875,-0.287,-0.286,-0.2859,-0.2847,-0.2848,-0.284,-0.2853,-0.2862,-0.2861,-0.2864,-0.2853,-0.2893,-0.2897,-0.2901,-0.2914,-0.2919,-0.2856,-0.2855,-0.2855,-0.2855,0,-0.2941,-0.2944,-0.2954,-0.2945,-0.2944,-0.2952,-0.2933,-0.2935,-0.2921,-0.291,-0.2919,-0.2909,-0.2906,-0.2908,-0.2895,-0.2919,-0.2913,-0.2897,-0.2875,-0.2909,-0.2921,-0.2926,-0.2859,-0.2858,-0.2857,-0.2857,0,0,-0.3004,-0.2982,-0.2987,-0.2982,-0.2969,-0.2971,-0.2979,-0.2975,-0.2978,-0.2972,-0.2978,-0.298,-0.2965,-0.2963,-0.2949,-0.2957,-0.2989,-0.2941,-0.294,-0.2951,-0.3016,-0.3029,-0.3035,-0.2977,-0.2978,-0.2979,-0.3017,0,-0.304,-0.3052,-0.3033,-0.3049,-0.3052,-0.3027,-0.3034,-0.3027,-0.3016,-0.3018,-0.3007,-0.3009,-0.2989,-0.2987,-0.2994,-0.2983,-0.3002,-0.298,-0.2985,-0.2985,-0.2989,-0.3041,-0.3055,-0.3091,-0.3022,-0.3022,-0.3023,0,-0.3085,-0.3081,-0.3097,-0.3083,-0.3084,-0.309,-0.3086,-0.3087,-0.3079,-0.3071,-0.3068,-0.3051,-0.3059,-0.3037,-0.3047,-0.3033,-0.3034,-0.3029,-0.303,-0.303,-0.3007,-0.3044,-0.3102,-0.3108,-0.303,-0.3029,-0.3029,0,-0.313,-0.3129,-0.3138,-0.3135,-0.3119,-0.3124,-0.3117,-0.3108,-0.3107,-0.3104,-0.3104,-0.3101,-0.31,-0.3099,-0.3083,-0.3068,-0.3095,-0.3072,-0.309,-0.3091,-0.3098,-0.3098,-0.3158,-0.3096,-0.3096,-0.3096,-0.3096,0,-0.3174,-0.3185,-0.3159,-0.3165,-0.3177,-0.3155,-0.3168,-0.3159,-0.3151,-0.3156,-0.3133,-0.3138,-0.3115,-0.3118,-0.3105,-0.3117,-0.3116,-0.311,-0.3107,-0.3113,-0.3114,-0.3114,-0.3112,-0.3098,-0.3097,-0.3097,-0.3097,0,-0.3227,-0.3209,-0.3219,-0.3202,-0.3198,-0.3208,-0.3194,-0.3199,-0.3187,-0.3194,-0.3194,-0.3175,-0.3177,-0.316,-0.3159,-0.3151,-0.3169,-0.316,-0.3171,-0.3169,-0.3189,-0.3188,-0.3252,-0.3259,-0.3192,-0.3193,-0.3193,0,-0.3257,-0.3265,-0.3249,-0.325,-0.3244,-0.3246,-0.3246,-0.3225,-0.3225,-0.3216,-0.3223,-0.3223,-0.3222,-0.3227,-0.3214,-0.3213,-0.3205,-0.3228,-0.3205,-0.3211,-0.3207,-0.3207,-0.3209,-0.3233,-0.3234,-0.3234,-0.3235,0,-0.3311,-0.3302,-0.3302,-0.3298,-0.3298,-0.3294,-0.3289,-0.3292,-0.3269,-0.3271,-0.3272,-0.3272,-0.327,-0.3271,-0.3268,-0.3262,-0.3245,-0.3242,-0.3246,-0.3253,-0.326,-0.3258,-0.3186,-0.3241,-0.324,-0.324,-0.324,-0.3239,-0.3354,-0.3361,-0.3351,-0.3351,-0.3345,-0.3341,-0.3345,-0.3334,-0.3334,-0.3332,-0.3319,-0.3323,-0.3315,-0.3309,-0.3304,-0.3307,-0.3297,-0.3303,-0.3305,-0.3307,-0.3311,-0.3258,-0.3307,-0.3306,-0.3306,-0.3306,-0.3306,0,-0.3409,-0.3401,-0.3402,-0.3395,-0.3396,-0.3379,-0.3373,-0.3375,-0.3378,-0.3371,-0.3371,-0.3373,-0.3374,-0.3361,-0.336,-0.3365,-0.3358,-0.3366,-0.3366,-0.3365,-0.332,-0.3317,-0.3372,-0.3372,-0.3372,-0.3372,-0.3372,-0.3372,-0.3438,-0.3448,-0.3438,-0.3445,-0.3437,-0.344,-0.3438,-0.3435,-0.3429,-0.3433,-0.3433,-0.3424,-0.3415,-0.3413,-0.3414,-0.341,-0.3411,-0.3422,-0.3416,-0.3374,-0.3368,-0.3362,-0.3359,-0.3422,-0.3422,-0.3461,-0.3461,-0.3462]},{"header":{"parameterUnit":"m.s-1","parameterCategory":1,"la1":30.2991,"la2":30.254,"lo1":-89.0895,"lo2":-89.0444,"dy":0.0017,"dx":0.0017,"nx":28,"ny":28,"refTime":"2025-09-06T03:00:00:Z","depth":0,"parameterNumber":3,"parameterNumberName":"V-component_of_WINDS"},"data":[0,0,0,0,0,0,0,0,0,0,0,0,0,0,0,0,0,0,0,0,0,0,0,0,0,0,0,0,0,0,0,0,0,0,0,0,0,0,0,0,0,0,0,0,0,0,0,0,0,0,0,0,0,0,0,0,0,0,2.4024,2.4024,0,2.4002,2.4002,2.4001,2.3974,2.3974,2.3973,2.3973,2.395,2.395,2.3949,0,0,0,0,0,0,0,0,0,0,0,0,0,2.4042,2.4042,2.4024,2.4024,2.4023,2.4002,2.4002,2.4001,2.3974,2.3974,2.3973,2.3973,2.395,2.395,2.3949,0,0,0,0,0,0,0,0,0,0,0,0,0,2.4029,2.4042,2.4024,2.4007,2.4006,2.4002,2.4002,2.4001,2.3974,2.3974,2.3973,2.3972,2.395,2.395,2.3949,2.3961,0,0,2.3948,2.3948,0,0,0,0,0,0,0,0,2.4029,2.4028,2.401,2.4008,2.4006,2.399,2.4,2.3988,2.3974,2.3986,2.3973,2.3972,2.3964,2.3962,2.396,2.3959,2.3958,2.3948,2.3948,2.3948,2.3948,0,0,0,0,0,0,0,2.403,2.4029,2.4015,2.401,2.4008,2.4001,2.3998,2.3997,2.3979,2.3985,2.3983,2.3981,2.3963,2.396,2.3959,2.3958,2.3948,2.3948,2.3948,2.3948,2.3965,2.3965,0,0,0,0,0,0,2.4034,2.403,2.4016,2.4015,2.4017,2.4001,2.3998,2.3996,2.3979,2.3975,2.3981,2.398,2.3961,2.3959,2.3958,2.3968,2.3948,2.3948,2.3948,2.3964,2.3965,2.3966,0,0,0,0,0,0,2.4034,2.4033,2.4017,2.4022,2.4019,2.4001,2.3999,2.3996,2.3993,2.3976,2.3972,2.3982,2.396,2.3958,2.396,2.3967,2.3948,2.3947,2.3963,2.3964,2.3965,2.3991,0,0,0,0,0,0,2.4035,2.4033,2.4037,2.4022,2.4019,2.4019,2.4,2.3996,2.3993,2.399,2.3976,2.3973,2.3959,2.396,2.3959,2.3967,2.3947,2.3963,2.3964,2.3965,2.3989,2.3992,2.3995,0,0,0,0,0,2.4036,2.4046,2.4038,2.4036,2.4024,2.402,2.4018,2.4003,2.3993,2.3997,2.3986,2.3973,2.3967,2.3961,2.396,2.3967,2.3962,2.3963,2.3965,2.3988,2.3992,2.3995,0,0,0,0,0,0,2.4062,2.4043,2.4034,2.404,2.4032,2.4015,2.4019,2.4008,2.4002,2.4,2.3982,2.3979,2.3982,2.3975,2.3968,2.3976,2.3962,2.3964,2.398,2.3984,2.3987,2.3988,2.3947,0,0,0,0,0,2.4069,2.4068,2.4051,2.4057,2.4054,2.4037,2.4035,2.4024,2.4015,2.4012,2.4001,2.3992,2.3988,2.3986,2.3982,2.3988,2.3984,2.3993,2.3996,2.3998,2.3999,2.4001,2.4004,2.397,2.397,2.397,0,0,2.4082,2.4072,2.4072,2.4062,2.4055,2.4053,2.4035,2.4034,2.4033,2.4011,2.4012,2.4004,2.3993,2.3997,2.3998,2.3991,2.4008,2.4,2.4002,2.4002,2.4003,2.4006,2.4009,2.3971,2.3971,2.3971,0,0,2.4106,2.4098,2.4102,2.4095,2.4083,2.4073,2.4074,2.4059,2.4053,2.4053,2.4036,2.4035,2.4029,2.4021,2.4017,2.4037,2.4024,2.4036,2.4052,2.4054,2.4057,2.4059,2.4065,2.4067,2.4038,2.4038,2.4038,0,2.4123,2.4121,2.4105,2.4105,2.4101,2.4082,2.4085,2.4079,2.4067,2.4065,2.4057,2.4048,2.404,2.4041,2.4046,2.4044,2.4043,2.4037,2.4058,2.406,2.4061,2.4067,2.4069,2.4039,2.4039,2.4039,2.4039,0,2.4143,2.4141,2.4145,2.4134,2.4131,2.4132,2.4117,2.4115,2.4105,2.4095,2.4094,2.4084,2.4076,2.4076,2.4066,2.4076,2.4071,2.4061,2.4047,2.4066,2.4071,2.4073,2.4041,2.4041,2.404,2.404,0,0,2.4181,2.4161,2.4163,2.4157,2.4143,2.4142,2.4143,2.4135,2.4134,2.4126,2.4126,2.4121,2.4111,2.4106,2.4095,2.4097,2.4112,2.4086,2.4086,2.409,2.4121,2.4128,2.413,2.4104,2.4105,2.4105,2.4121,0,2.42,2.4201,2.4187,2.419,2.4188,2.417,2.4171,2.4162,2.4153,2.415,2.4139,2.4136,2.4124,2.412,2.4122,2.411,2.4118,2.4109,2.4103,2.4103,2.4104,2.4133,2.414,2.4156,2.4123,2.4123,2.4124,0,2.4223,2.4217,2.422,2.4206,2.4204,2.4205,2.4197,2.4194,2.4184,2.4177,2.4172,2.4159,2.4158,2.4146,2.4144,2.4138,2.4135,2.4129,2.4129,2.4127,2.4113,2.413,2.4161,2.4163,2.4127,2.4126,2.4126,0,2.4249,2.4241,2.4242,2.4238,2.4222,2.4223,2.4216,2.4205,2.4201,2.4194,2.4192,2.4185,2.4181,2.4175,2.4161,2.4154,2.416,2.4147,2.4153,2.4154,2.4155,2.4154,2.4184,2.4155,2.4155,2.4155,2.4155,0,2.4271,2.4274,2.4253,2.4254,2.4256,2.424,2.4243,2.4234,2.4225,2.4223,2.4207,2.4206,2.4188,2.4184,2.4173,2.4172,2.4171,2.4164,2.4161,2.4165,2.4166,2.4161,2.4159,2.4156,2.4155,2.4155,2.4155,0,2.43,2.4286,2.4286,2.4271,2.4267,2.4269,2.4256,2.4255,2.4245,2.4243,2.4241,2.4225,2.422,2.4206,2.4197,2.4189,2.4191,2.4186,2.4194,2.4192,2.4199,2.4198,2.4226,2.4228,2.4199,2.4199,2.42,0,2.4314,2.4315,2.43,2.4298,2.4292,2.4289,2.4285,2.4269,2.4266,2.4254,2.4255,2.4248,2.4242,2.4235,2.4222,2.4215,2.4208,2.4219,2.4207,2.4211,2.4207,2.4206,2.4206,2.4221,2.4221,2.4221,2.4222,0,2.434,2.4334,2.4329,2.4322,2.4318,2.4311,2.4304,2.4303,2.4285,2.4282,2.4277,2.4272,2.4263,2.4256,2.4247,2.4239,2.4227,2.4226,2.4226,2.423,2.4234,2.423,2.42,2.4225,2.4224,2.4224,2.4224,2.4224,2.4361,2.4361,2.4351,2.4346,2.4339,2.4332,2.433,2.432,2.4316,2.4307,2.4298,2.4293,2.4283,2.4269,2.4262,2.4258,2.4252,2.4253,2.4253,2.4254,2.4255,2.4236,2.4256,2.4256,2.4256,2.4256,2.4256,0,2.4386,2.4378,2.4374,2.4364,2.436,2.435,2.4341,2.4338,2.4334,2.4325,2.4319,2.4313,2.4306,2.4293,2.4285,2.4284,2.4278,2.4282,2.4281,2.428,2.4262,2.4261,2.4287,2.4287,2.4287,2.4287,2.4287,2.4287,2.4398,2.4397,2.4389,2.4385,2.4377,2.4372,2.4368,2.4362,2.4354,2.4348,2.4342,2.4334,2.4323,2.4314,2.4308,2.4304,2.4301,2.4307,2.4301,2.4284,2.4281,2.4278,2.4277,2.4307,2.4307,2.4319,2.4319,2.4319]}]]